Weather History for Norfolk, NE

Change the Weather History Date:

Saturday, January 18, 2014

  Actual Average Record
Temperature  
Mean Temperature 31 °F 22 °F  
Max Temperature 43 °F 33 °F 61 °F (1951)
Min Temperature 18 °F 12 °F -21 °F (1940)
Degree Days  
Heating Degree Days 34 43  
Month to date heating degree days 770 774  
Since 1 July heating degree days 3532 3480  
Cooling Degree Days 0 0  
Month to date cooling degree days 0 0  
Year to date cooling degree days 0 0  
Moisture  
Dew Point 21 °F    
Average Humidity 64    
Maximum Humidity 84    
Minimum Humidity 44    
Precipitation  
Precipitation T in 0.02 in 0.39 in (1975)
Month to date precipitation 0.13 0.33  
Year to date precipitation 0.13 0.33  
Snow  
Snow 0.00 in 0.20 in - ()
Month to date snowfall 1.0 3.5  
Since 1 July snowfall 4.3 14.4  
Snow Depth 0.00 in    
Sea Level Pressure  
Sea Level Pressure 29.88 in    
Wind  
Wind Speed 22 mph (NW)    
Max Wind Speed 52 mph    
Max Gust Speed 67 mph    
Visibility 10 miles    
Events Rain    
T = Trace of Precipitation, MM = Missing Value Source: NWS Daily Summary

Daily Weather History Graph

Daily Weather History Graph

Search for Another Location

Airport:

Trip Planner

Search our weather history database for the weather conditions in past years. The results will help you decide how hot, cold, wet, or windy it might be!

Date:

Astronomy

Jan. 18, 2014 Rise Set
Actual Time 7:53 AM CST 5:27 PM CST
Civil Twilight 7:23 AM CST 5:57 PM CST
Nautical Twilight 6:48 AM CST 6:32 PM CST
Astronomical Twilight 6:15 AM CST 7:05 PM CST
Moon 8:13 PM CST (1/18) 8:51 AM CST (1/18)
Length of Visible Light 10h 34m
Length of Day
9h 33m
Waning Gibbous, 94% of the Moon is Illuminated
Jan 18
Waning Gibbous
Jan 23
Last Quarter
Jan 30
New
Feb 6
First Quarter
Feb 14
Full

Hourly Weather History & Observations

Time (CST) Temp. Windchill Dew Point Humidity Pressure Visibility Wind Dir Wind Speed Gust Speed Precip Events Conditions
12:56 AM 35.1 °F 26.4 °F 16.0 °F 46% 29.72 in 10.0 mi SW 12.7 mph - N/A   Partly Cloudy
1:56 AM 39.0 °F 30.6 °F 19.9 °F 46% 29.69 in 10.0 mi West 15.0 mph - N/A   Clear
2:56 AM 37.9 °F 30.0 °F 21.9 °F 53% 29.69 in 10.0 mi West 12.7 mph - N/A   Mostly Cloudy
3:56 AM 41.0 °F 31.1 °F 24.1 °F 51% 29.69 in 10.0 mi WNW 23.0 mph 32.2 mph N/A   Overcast
4:56 AM 42.1 °F 32.6 °F 27.0 °F 55% 29.68 in 10.0 mi NW 23.0 mph 34.5 mph N/A   Overcast
5:56 AM 41.0 °F 31.1 °F 27.0 °F 57% 29.70 in 10.0 mi WNW 23.0 mph 33.4 mph N/A   Mostly Cloudy
6:56 AM 39.9 °F 29.2 °F 28.9 °F 65% 29.69 in 10.0 mi NW 25.3 mph 35.7 mph 0.00 in Rain Light Rain
7:56 AM 39.9 °F 27.5 °F 28.0 °F 63% 29.70 in 10.0 mi NW 35.7 mph 46.0 mph 0.00 in   Overcast
8:56 AM 41.0 °F 29.8 °F 26.1 °F 55% 29.71 in 10.0 mi NW 29.9 mph 49.5 mph 0.00 in Rain Light Rain
9:56 AM 39.9 °F 26.8 °F 26.1 °F 58% 29.75 in 10.0 mi NW 40.3 mph 57.5 mph 0.00 in   Overcast
10:56 AM 37.9 °F 24.2 °F 23.0 °F 55% 29.82 in 7.0 mi NNW 39.1 mph 63.3 mph N/A   Mostly Cloudy
11:56 AM 35.1 °F 18.8 °F 21.9 °F 59% 29.87 in 10.0 mi NNW 49.5 mph 61.0 mph N/A   Overcast
12:20 PM 35.1 °F 21.8 °F 21.9 °F 59% 29.85 in 10.0 mi NNW 29.9 mph 52.9 mph N/A   Mostly Cloudy
12:51 PM 35.6 °F 20.8 °F 21.2 °F 56% 29.86 in 10.0 mi NNW 40.3 mph 55.2 mph N/A   Scattered Clouds
12:56 PM 35.1 °F 20.2 °F 21.9 °F 59% 29.91 in 10.0 mi NNW 39.1 mph 55.2 mph N/A   Scattered Clouds
1:25 PM 35.1 °F 21.6 °F 21.0 °F 57% 29.89 in 10.0 mi NNW 31.1 mph 50.6 mph N/A   Mostly Cloudy
1:32 PM 35.1 °F 21.2 °F 21.0 °F 57% 29.90 in 10.0 mi NNW 33.4 mph 46.0 mph N/A   Scattered Clouds
1:56 PM 35.1 °F 21.0 °F 21.0 °F 57% 29.96 in 10.0 mi NNW 34.5 mph 44.9 mph N/A   Partly Cloudy
2:56 PM 34.0 °F 19.9 °F 19.9 °F 56% 30.00 in 10.0 mi NNW 32.2 mph 43.7 mph N/A   Clear
3:56 PM 34.0 °F 21.0 °F 19.9 °F 56% 30.03 in 10.0 mi NNW 26.5 mph 35.7 mph N/A   Clear
4:56 PM 32.0 °F 20.5 °F 21.0 °F 64% 30.07 in 10.0 mi NNW 18.4 mph - N/A   Clear
5:56 PM 28.9 °F 19.8 °F 19.9 °F 69% 30.09 in 10.0 mi NNW 10.4 mph - N/A   Clear
6:56 PM 26.1 °F 18.4 °F 19.0 °F 75% 30.09 in 10.0 mi NW 6.9 mph - N/A   Clear
7:56 PM 23.0 °F 17.0 °F 18.0 °F 81% 30.08 in 10.0 mi SW 4.6 mph - N/A   Scattered Clouds
8:56 PM 21.9 °F 14.5 °F 18.0 °F 85% 30.06 in 10.0 mi SW 5.8 mph - N/A   Clear
9:56 PM 21.9 °F - 17.1 °F 82% 30.06 in 10.0 mi Calm Calm - N/A   Clear
10:56 PM 21.0 °F - 17.1 °F 85% 30.04 in 9.0 mi Calm Calm - N/A   Clear
11:56 PM 19.9 °F 7.9 °F 15.1 °F 81% 30.03 in 10.0 mi SW 11.5 mph - N/A   Clear